Weather History for Biloxi, MS

Change the Weather History Date:

Wednesday, November 21, 2012

  Actual Average Record
Temperature  
Mean Temperature 62 °F -  
Max Temperature 74 °F 68 °F 78 °F (1996)
Min Temperature 49 °F 49 °F 34 °F (1951)
Degree Days  
Heating Degree Days 4    
Growing Degree Days 12 (Base 50)    
Moisture  
Dew Point 54 °F    
Average Humidity 92    
Maximum Humidity 100    
Minimum Humidity 43    
Precipitation  
Precipitation 0.00 in - - ()
Sea Level Pressure  
Sea Level Pressure 30.19 in    
Wind  
Wind Speed 1 mph (NW)    
Max Wind Speed 10 mph    
Max Gust Speed -    
Visibility 4 miles    
Events Fog    
Averages and records for this station are not official NWS values.
T = Trace of Precipitation, MM = Missing Value Source: NWS Daily Summary

Daily Weather History Graph

Daily Weather History Graph

Search for Another Location

Airport:

Trip Planner

Search our weather history database for the weather conditions in past years. The results will help you decide how hot, cold, wet, or windy it might be!

Date:

Astronomy

Nov. 21, 2012 Rise Set
Actual Time 6:26 AM CST 4:56 PM CST
Civil Twilight 6:01 AM CST 5:21 PM CST
Nautical Twilight 5:31 AM CST 5:51 PM CST
Astronomical Twilight 5:03 AM CST 6:20 PM CST
Moon 12:49 PM CST (11/21) 12:11 AM CST (11/21)
Length of Visible Light 11h 20m
Length of Day
10h 29m
First Quarter, 62% of the Moon is Illuminated
Nov 21
First Quarter
Nov 28
Full
Dec 6
Last Quarter
Dec 13
New
Dec 19
First Quarter

Hourly Weather History & Observations

Time (CST) Temp. Dew Point Humidity Pressure Visibility Wind Dir Wind Speed Gust Speed Precip Events Conditions
12:55 AM 52.7 °F 48.7 °F 86% 30.16 in 10.0 mi Calm Calm - N/A   Clear
1:55 AM 50.9 °F 47.1 °F 87% 30.16 in 10.0 mi Calm Calm - N/A   Clear
2:55 AM 50.4 °F 47.5 °F 90% 30.16 in 10.0 mi Calm Calm - N/A   Clear
3:55 AM 50.7 °F 47.5 °F 89% 30.16 in 10.0 mi Calm Calm - N/A   Clear
4:55 AM 49.5 °F 46.2 °F 89% 30.16 in 10.0 mi Calm Calm - N/A   Clear
5:55 AM 49.5 °F 46.4 °F 89% 30.17 in 10.0 mi Calm Calm - N/A   Clear
6:55 AM 49.8 °F 47.1 °F 90% 30.19 in 10.0 mi NNW 3.5 mph - N/A   Clear
7:55 AM 54.1 °F 47.8 °F 79% 30.21 in 10.0 mi Calm Calm - N/A   Partly Cloudy
8:55 AM 60.8 °F 50.0 °F 68% 30.22 in 10.0 mi North 3.5 mph - N/A   Clear
9:55 AM 68.2 °F 48.9 °F 50% 30.22 in 10.0 mi North 4.6 mph - N/A   Clear
10:55 AM 72.1 °F 48.9 °F 44% 30.20 in 10.0 mi North 6.9 mph - N/A   Clear
11:55 AM 74.1 °F 50.2 °F 43% 30.17 in 10.0 mi NW 3.5 mph - N/A   Clear
12:55 PM 72.1 °F 52.9 °F 51% 30.14 in 10.0 mi SSW 8.1 mph - N/A   Clear
1:55 PM 72.1 °F 50.9 °F 47% 30.12 in 10.0 mi SW 9.2 mph - N/A   Clear
2:55 PM 70.7 °F 52.3 °F 52% 30.12 in 10.0 mi SW 10.4 mph - N/A   Clear
3:55 PM 68.0 °F 54.0 °F 61% 30.13 in 10.0 mi SW 5.8 mph - N/A   Clear
4:55 PM 62.4 °F 55.2 °F 77% 30.14 in 10.0 mi SW 4.6 mph - N/A   Clear
5:55 PM 61.9 °F 55.6 °F 80% 30.15 in 10.0 mi Calm Calm - N/A   Clear
6:55 PM 60.3 °F 56.1 °F 86% 30.17 in 10.0 mi Calm Calm - N/A   Clear
7:55 PM 57.7 °F 55.8 °F 93% 30.18 in 9.0 mi Calm Calm - N/A   Clear
8:20 PM 57.2 °F 55.4 °F 94% 30.19 in 5.0 mi Calm Calm - N/A   Clear
8:25 PM 57.2 °F 55.4 °F 94% 30.19 in 2.5 mi Calm Calm - N/A   Clear
8:26 PM 57.2 °F 55.4 °F 94% 30.19 in 2.0 mi Calm Calm - N/A   Clear
8:27 PM 57.2 °F 55.4 °F 94% 30.19 in 1.8 mi Calm Calm - N/A   Clear
8:28 PM 57.2 °F 55.4 °F 94% 30.19 in 1.5 mi Calm Calm - N/A   Clear
8:32 PM 57.2 °F 55.4 °F 94% 30.19 in 1.2 mi Calm Calm - N/A   Clear
8:33 PM 57.2 °F 55.4 °F 94% 30.19 in 1.2 mi Calm Calm - N/A   Clear
8:39 PM 55.4 °F 55.4 °F 100% 30.19 in 1.2 mi Calm Calm - N/A   Clear
8:40 PM 55.4 °F 55.4 °F 100% 30.19 in 1.2 mi Calm Calm - N/A   Clear
8:42 PM 55.4 °F 55.4 °F 100% 30.19 in 1.5 mi Calm Calm - N/A   Clear
8:43 PM 55.4 °F 55.4 °F 100% 30.19 in 1.8 mi Calm Calm - N/A   Clear
8:44 PM 57.2 °F 55.4 °F 94% 30.19 in 2.5 mi Calm Calm - N/A   Clear
8:47 PM 57.2 °F 55.4 °F 94% 30.19 in 2.0 mi Calm Calm - N/A   Clear
8:48 PM 57.2 °F 55.4 °F 94% 30.19 in 1.8 mi Calm Calm - N/A   Clear
8:49 PM 57.2 °F 55.4 °F 94% 30.19 in 1.5 mi Calm Calm - N/A   Clear
8:52 PM 57.2 °F 55.4 °F 94% 30.19 in 1.2 mi Calm Calm - N/A   Clear
8:54 PM 57.2 °F 55.4 °F 94% 30.19 in 1.0 mi Calm Calm - N/A   Clear
8:55 PM 56.8 °F 56.1 °F 97% 30.19 in 1.0 mi Calm Calm - N/A   Clear
8:57 PM 57.2 °F 55.4 °F 94% 30.19 in 0.8 mi Calm Calm - N/A   Clear
9:02 PM 57.2 °F 55.4 °F 94% 30.19 in 0.8 mi Calm Calm - N/A   Clear
9:03 PM 57.2 °F 55.4 °F 94% 30.19 in 0.8 mi Calm Calm - N/A   Clear
9:06 PM 57.2 °F 55.4 °F 94% 30.19 in 0.8 mi Calm Calm - N/A   Clear
9:07 PM 57.2 °F 55.4 °F 94% 30.19 in 1.0 mi Calm Calm - N/A   Clear
9:08 PM 57.2 °F 55.4 °F 94% 30.19 in 1.2 mi Calm Calm - N/A   Clear
9:09 PM 57.2 °F 55.4 °F 94% 30.19 in 1.5 mi Calm Calm - N/A   Clear
9:10 PM 57.2 °F 55.4 °F 94% 30.19 in 2.0 mi Calm Calm - N/A   Clear
9:11 PM 57.2 °F 55.4 °F 94% 30.19 in 2.5 mi Calm Calm - N/A   Clear
9:12 PM 55.4 °F 55.4 °F 100% 30.19 in 3.0 mi Calm Calm - N/A   Clear
9:23 PM 55.4 °F 55.4 °F 100% 30.19 in 3.0 mi Calm Calm - N/A   Clear
9:25 PM 55.4 °F 55.4 °F 100% 30.19 in 3.0 mi Calm Calm - N/A   Clear
9:29 PM 55.4 °F 55.4 °F 100% 30.19 in 2.5 mi Calm Calm - N/A   Clear
9:30 PM 55.4 °F 55.4 °F 100% 30.19 in 2.0 mi Calm Calm - N/A   Clear
9:31 PM 55.4 °F 55.4 °F 100% 30.19 in 1.8 mi Calm Calm - N/A   Clear
9:32 PM 55.4 °F 55.4 °F 100% 30.20 in 1.5 mi Calm Calm - N/A   Clear
9:33 PM 55.4 °F 55.4 °F 100% 30.20 in 1.2 mi Calm Calm - N/A   Clear
9:36 PM 55.4 °F 55.4 °F 100% 30.19 in 0.8 mi Calm Calm - N/A   Clear
9:39 PM 55.4 °F 55.4 °F 100% 30.20 in 0.5 mi Calm Calm - N/A Fog Fog
9:40 PM 55.4 °F 55.4 °F 100% 30.19 in 0.5 mi NNW 3.5 mph - N/A Fog Fog
9:41 PM 55.4 °F 55.4 °F 100% 30.20 in 0.5 mi NNW 3.5 mph - N/A Fog Fog
9:42 PM 55.4 °F 55.4 °F 100% 30.20 in 0.8 mi NNW 3.5 mph - N/A   Clear
9:43 PM 55.4 °F 55.4 °F 100% 30.20 in 0.8 mi NNW 3.5 mph - N/A   Clear
9:44 PM 55.4 °F 55.4 °F 100% 30.20 in 0.8 mi Calm Calm - N/A   Clear
9:45 PM 55.4 °F 55.4 °F 100% 30.20 in 1.0 mi Calm Calm - N/A   Clear
9:48 PM 55.4 °F 55.4 °F 100% 30.19 in 1.8 mi Calm Calm - N/A   Clear
9:49 PM 55.4 °F 55.4 °F 100% 30.20 in 2.5 mi Calm Calm - N/A   Clear
9:50 PM 55.4 °F 55.4 °F 100% 30.20 in 4.0 mi Calm Calm - N/A   Clear
9:54 PM 55.4 °F 55.4 °F 100% 30.19 in 1.8 mi Calm Calm - N/A   Clear
9:55 PM 55.8 °F 55.2 °F 98% 30.20 in 1.0 mi Calm Calm - N/A   Clear
9:56 PM 55.4 °F 55.4 °F 100% 30.19 in 0.8 mi Calm Calm - N/A   Clear
9:57 PM 55.4 °F 55.4 °F 100% 30.20 in 0.5 mi Calm Calm - N/A Fog Fog
9:58 PM 55.4 °F 55.4 °F 100% 30.20 in 0.2 mi Calm Calm - N/A Fog Fog
10:00 PM 55.4 °F 55.4 °F 100% 30.20 in 0.2 mi Calm Calm - N/A Fog Fog
10:01 PM 55.4 °F 55.4 °F 100% 30.20 in 0.2 mi Calm Calm - N/A Fog Fog
10:02 PM 55.4 °F 55.4 °F 100% 30.20 in 0.2 mi NNW 3.5 mph - N/A Fog Fog
10:05 PM 55.4 °F 55.4 °F 100% 30.19 in 0.2 mi Calm Calm - N/A Fog Fog
10:08 PM 55.4 °F 55.4 °F 100% 30.19 in 0.5 mi Calm Calm - N/A Fog Fog
10:09 PM 55.4 °F 55.4 °F 100% 30.19 in 0.5 mi Calm Calm - N/A Fog Fog
10:10 PM 55.4 °F 53.6 °F 94% 30.20 in 1.0 mi Calm Calm - N/A   Clear
10:11 PM 55.4 °F 53.6 °F 94% 30.19 in 1.5 mi Calm Calm - N/A   Clear
10:12 PM 55.4 °F 53.6 °F 94% 30.20 in 2.0 mi Calm Calm - N/A   Clear
10:13 PM 55.4 °F 53.6 °F 94% 30.20 in 2.5 mi Calm Calm - N/A   Clear
10:14 PM 55.4 °F 53.6 °F 94% 30.20 in 3.0 mi Calm Calm - N/A   Clear
10:19 PM 55.4 °F 55.4 °F 100% 30.20 in 8.0 mi Calm Calm - N/A   Clear
10:30 PM 55.4 °F 55.4 °F 100% 30.19 in 6.0 mi Calm Calm - N/A   Clear
10:34 PM 55.4 °F 55.4 °F 100% 30.19 in 5.0 mi Calm Calm - N/A   Clear
10:39 PM 55.4 °F 55.4 °F 100% 30.19 in 6.0 mi NNW 3.5 mph - N/A   Clear
10:49 PM 55.4 °F 53.6 °F 94% 30.19 in 5.0 mi NNW 3.5 mph - N/A   Clear
10:55 PM 54.5 °F 53.6 °F 97% 30.19 in 7.0 mi Calm Calm - N/A   Clear
11:33 PM 53.6 °F 51.8 °F 94% 30.19 in 5.0 mi Calm Calm - N/A   Clear
11:40 PM 53.6 °F 51.8 °F 94% 30.19 in 3.0 mi Calm Calm - N/A   Clear
11:43 PM 53.6 °F 51.8 °F 94% 30.19 in 3.0 mi Calm Calm - N/A   Clear
11:44 PM 53.6 °F 51.8 °F 94% 30.19 in 3.0 mi Calm Calm - N/A   Clear
11:55 PM 54.3 °F 52.2 °F 92% 30.19 in 5.0 mi Calm Calm - N/A   Clear
11:57 PM 53.6 °F 51.8 °F 94% 30.19 in 5.0 mi Calm Calm - N/A   Clear
11:58 PM 53.6 °F 51.8 °F 94% 30.19 in 5.0 mi Calm Calm - N/A   Clear
11:59 PM 53.6 °F 51.8 °F 94% 30.19 in 5.0 mi Calm Calm - N/A   Clear